Kuiper-00112

operational
NORAD ID: 65150 Int'l Des: 2025-171 Owner: KUIP Country: US Constellation: kuiper
LEOCIRCULAR

About Kuiper-00112

Description loading...

Live Position

Loading 3D Globe...

Upcoming Passes

Altitude History

Altitude vs Time

uPlot chart will show altitude changes over time

Two-Line Element Set

1 65150U 25171U 25312.83335647 -.00662428 00000-0 -29999-1 0 9994
2 65150 51.8857 334.4847 0007321 108.8260 143.1964 15.22915642 3631
Epoch: Nov 8, 2025 • Age: 57 hours

Current Status

Altitude 507.7 km
Velocity 7.62 km/s
Sub-Earth Point 38.54°N, 130.93°W
Launch Date Aug 11, 2025
Age 0.2 years
Type internet

Technical Details

Classification Payload
Mass 490.00 kg
Dry Mass 490.00 kg
Total Mass 490.00 kg
Length 1.80 m
Diameter 0.70 m
Span 5.00 m
Shape Box + 2 pan
Manufacturer KUIP
Bus Type Kuiper
Phase Status In Orbit
Owner/State KUIP/US

Large Constellations

Loading constellations...